﻿"﻿最高氣溫 (攝氏度) - ���W"
"Maximum Temperature (°C) - Stanley"
年/Year,月/Month,日/Day,數值/Value,"數據完整性/data Completeness"
2024,1,1,20.5,C
2024,1,2,19.9,C
2024,1,3,22.9,C
2024,1,4,19.3,C
2024,1,5,21.7,C
2024,1,6,23.8,#
2024,1,7,21.1,C
2024,1,8,20.3,C
2024,1,9,23.2,C
2024,1,10,24.9,C
2024,1,11,20.1,C
2024,1,12,20.7,C
2024,1,13,22.0,C
2024,1,14,22.6,C
2024,1,15,22.6,C
2024,1,16,19.1,C
2024,1,17,20.3,C
2024,1,18,24.4,#
2024,1,19,23.4,#
2024,1,20,23.9,C
2024,1,21,21.5,C
2024,1,22,17.9,C
2024,1,23,10.5,C
2024,1,24,12.3,C
2024,1,25,16.0,C
2024,1,26,17.8,#
2024,1,27,18.1,C
2024,1,28,15.1,C
2024,1,29,18.1,C
2024,1,30,19.9,C
2024,1,31,20.2,C
2024,2,1,24.4,C
2024,2,2,23.5,C
2024,2,3,21.7,C
2024,2,4,20.1,C
2024,2,5,21.7,C
2024,2,6,19.8,C
2024,2,7,17.8,C
2024,2,8,15.1,C
2024,2,9,14.8,C
2024,2,10,17.0,C
2024,2,11,21.5,C
2024,2,12,20.5,C
2024,2,13,22.3,C
2024,2,14,24.6,C
2024,2,15,25.4,C
2024,2,16,22.0,C
2024,2,17,21.6,C
2024,2,18,25.0,C
2024,2,19,25.5,C
2024,2,20,25.1,#
2024,2,21,27.4,C
2024,2,22,25.8,C
2024,2,23,22.1,#
2024,2,24,21.2,C
2024,2,25,20.9,C
2024,2,26,20.1,C
2024,2,27,18.4,C
2024,2,28,18.8,C
2024,2,29,23.4,#
2024,3,1,16.8,#
2024,3,2,14.7,C
2024,3,3,18.3,C
2024,3,4,22.5,C
2024,3,5,28.7,C
2024,3,6,26.1,C
2024,3,7,20.2,C
2024,3,8,20.7,C
2024,3,9,18.9,C
2024,3,10,16.4,C
2024,3,11,18.2,C
2024,3,12,22.1,C
2024,3,13,20.6,C
2024,3,14,21.1,C
2024,3,15,20.7,C
2024,3,16,22.8,C
2024,3,17,25.9,C
2024,3,18,22.0,C
2024,3,19,23.5,C
2024,3,20,22.4,C
2024,3,21,22.1,C
2024,3,22,25.3,C
2024,3,23,26.9,C
2024,3,24,28.6,C
2024,3,25,28.5,C
2024,3,26,28.9,C
2024,3,27,25.4,C
2024,3,28,27.8,C
2024,3,29,27.8,C
2024,3,30,29.0,C
2024,3,31,26.4,#
"*** 沒有數據/unavailable"
"# 數據不完整/data incomplete"
"C 數據完整/data Complete"
